This demonstration page uses our WeatherBlox Daily Observations layout. Learn more.

Left ArrowRight Arrow

Hourly Observations for March 15, 2020

Temp ( °F °C ) Dew Point ( °F °C ) Humidity (%) Winds ( mph kmh ) Pressure ( in mb ) Visibility ( mi km ) Precip ( " mm )
12:51 am 00:51 Clear 50 10 39 3.9 66 66 SE 6 9 30.02 1017 10 16 0.00 0.00
1:51 am 01:51 Clear 47 8.3 38 3.3 71 71 SE 5 7 30.02 1017 10 16 0.00 0.00
2:51 am 02:51 Clear 51 10.6 38 3.3 61 61 ESE 10 17 30.00 1016 10 16 0.00 0.00
3:51 am 03:51 Clear 50 10 38 3.3 63 63 SE 10 17 29.99 1016 10 16 0.00 0.00
4:51 am 04:51 Clear 48 8.9 38 3.3 68 68 SE 9 15 29.99 1016 10 16 0.00 0.00
5:51 am 05:51 Clear 44 6.7 37 2.8 76 76 N 3 6 30.02 1017 10 16 0.00 0.00
6:51 am 06:51 Sunny 42 5.6 37 2.8 82 82 E 5 7 30.04 1017 10 16 0.00 0.00
7:51 am 07:51 Sunny 51 10.6 40 4.4 66 66 SE 5 7 30.04 1017 10 16 0.00 0.00
8:51 am 08:51 Sunny 55 12.8 41 5 59 59 SSE 7 11 30.05 1018 10 16 0.00 0.00
9:51 am 09:51 Sunny 57 13.9 41 5 55 55 SSE 6 9 30.06 1018 10 16 0.00 0.00
10:51 am 10:51 Sunny 62 16.7 42 5.6 48 48 WNW 7 11 30.06 1018 10 16 0.00 0.00
11:51 am 11:51 Sunny 67 19.4 42 5.6 41 41 VRB 3 6 30.02 1017 10 16 0.00 0.00
12:51 pm 12:51 Sunny 72 22.2 39 3.9 30 30 WNW 5 7 29.98 1015 10 16 0.00 0.00
1:51 pm 13:51 Sunny 75 23.9 34 1.1 22 22 S 12 19 29.94 1014 10 16 0.00 0.00
2:51 pm 14:51 Sunny 76 24.4 29 -1.7 18 18 VRB 6 9 29.90 1013 10 16 0.00 0.00
3:51 pm 15:51 Sunny 76 24.4 28 -2.2 17 17 Calm 29.89 1012 10 16 0.00 0.00
4:51 pm 16:51 Sunny 76 24.4 29 -1.7 18 18 VRB 3 6 29.90 1012 10 16 0.00 0.00
5:51 pm 17:51 Sunny 73 22.8 34 1.1 24 24 WNW 13 20 29.91 1013 10 16 0.00 0.00
6:51 pm 18:51 Clear 67 19.4 38 3.3 35 35 WNW 12 19 29.95 1014 10 16 0.00 0.00
7:51 pm 19:51 Clear 61 16.1 38 3.3 43 43 WNW 12 19 29.97 1015 10 16 0.00 0.00
8:51 pm 20:51 Clear 60 15.6 37 2.8 42 42 W 10 17 29.98 1015 10 16 0.00 0.00
9:51 pm 21:51 Clear 55 12.8 37 2.8 51 51 NW 3 6 30.00 1016 10 16 0.00 0.00
10:51 pm 22:51 Clear 53 11.7 36 2.2 52 52 NNW 6 9 29.99 1016 10 16 0.00 0.00
11:51 pm 23:51 Clear 51 10.6 36 2.2 56 56 Calm 29.99 1016 10 16 0.00 0.00

Powered by AerisWeather